User: anonymous   Login
Location: Columbia
(38.9520°N, 92.3340°W)
Time: 19:13:12
(UTC-06:00)
Language:

Cosmos 1603 - Orbit

View from above orbital plane
View from above orbital plane
View from above satellite
View from above satellite

Ground track
Ground track

The orbit data is extracted from the following two-line orbital elements,

1 15333U 84106A   14332.35933185 -.00000225  00000-0 -93310-4 0  1391
2 15333 071.0274 243.4641 0019800 193.0863 305.8476 14.13966616556541
Epoch (UTC): 28 November 2014 08:37:26
Eccentricity: 0.0019800
inclination: 71.0274°
perigee height: 831 km
apogee height: 860 km
right ascension of ascending node: 243.4641°
argument of perigee: 193.0863°
revolutions per day: 14.13966616
mean anomaly at epoch: 305.8476°
orbit number at epoch: 55654

The dashed part of the orbit path shows where the satellite is in the earth's shadow,  

DLR